#timestamp,LO_Frequency,Hit 
1503489615.5,286047002.5,N
1503489635.3,286047000.0,N
1503489655.2,286047002.0,N
1503489675.9,286046999.9,N
1503489695.7,286047001.6,N
1503489715.6,286047003.5,N
1503489735.4,286047002.6,N
1503489755.2,286047000.6,N
1503489775.1,286046999.0,N
1503489776.0,286046999.0,N
1503489795.8,286047000.4,N
1503489815.6,286046998.7,N
1503489835.5,286047000.6,N
1503489855.3,286046998.5,N
1503489875.1,286046998.9,N
1503489895.8,286047000.9,N
1503489915.7,286047003.6,N
1503489935.5,286047004.1,N
1503489955.3,286047000.4,N
1503489975.2,286046996.1,N
1503489995.9,286046995.0,N
1503490015.7,286046998.7,N
1503490035.6,286046997.2,N
1503490055.4,286046998.0,N
1503490075.2,286046997.2,N
1503490095.1,286046992.2,P
1503490096.0,286046992.2,N
1503490115.8,286046992.2,N
1503490135.6,286046990.1,N
1503490155.5,286046991.7,N
1503490175.3,286046994.2,N
1503490195.1,286046990.3,P
1503490215.9,286047001.0,N
1503490235.7,286047002.8,N
1503490255.5,286047003.2,N
1503490275.4,286047003.7,N
1503490295.2,286047003.6,N
1503490315.0,286046998.6,N
1503490315.9,286046998.6,N
1503490335.8,286047000.7,N
1503490355.6,286047002.3,N
1503490375.4,286047001.5,N
1503490395.3,286047002.2,N
1503490415.1,286047001.0,N
1503490416.0,286047001.0,N
1503490435.8,286047005.5,N
1503490455.7,286047002.9,N
1503490475.5,286047005.3,N
1503490495.3,286047004.9,N
1503490515.2,286047004.1,N
1503490535.9,286046998.3,N
1503490555.7,286047002.5,N
1503490575.6,286046999.8,N
1503490595.4,286047001.0,N
1503490615.2,286047002.6,N
1503490635.0,286047005.7,N
1503490636.0,286047005.7,N
1503490655.8,286047005.7,N
1503490675.6,286047004.9,N
1503490695.4,286047007.3,N
1503490715.3,286047004.7,N
1503490735.1,286047004.7,N
1503490755.8,286047003.0,N
1503490775.7,286047005.3,N
1503490795.5,286047005.6,N
1503490815.3,286047001.0,N
1503490835.2,286047002.6,N
1503490855.9,286047000.3,N
1503490875.7,286046998.9,N
1503490895.6,286047001.2,N
1503490915.4,286047000.0,N
1503490935.2,286047002.8,N
1503490955.1,286046999.2,N
1503490956.0,286046999.2,N
1503490975.8,286047001.9,N
1503490995.6,286047000.0,N
1503491015.4,286046998.8,N
1503491035.3,286046996.7,N
1503491055.1,286046995.1,N
1503491075.8,286046997.1,N
1503491095.7,286046997.2,N
1503491115.5,286046996.2,N
1503491135.3,286046995.1,N
1503491155.2,286046995.4,N
1503491175.9,286046995.3,N
1503491195.1,286046999.2,N
1503491196.0,286046999.2,N
1503491215.8,286047001.6,N
1503491235.6,286046998.1,N
1503491255.5,286047001.1,N
1503491275.3,286046998.3,N
1503491295.1,286047000.6,N
1503491315.9,286046998.6,N
1503491335.7,286046999.8,N
1503491355.5,286047003.3,N
1503491375.4,286047007.2,P
1503491395.2,286047005.5,N
1503491415.0,286047007.6,N
1503491415.9,286047007.6,N
1503491435.8,286047005.1,N
1503491455.6,286047005.5,N
1503491475.4,286047005.7,N
1503491495.3,286047007.6,N
1503491515.1,286047000.4,N
1503491516.0,286047000.4,N
1503491535.8,286047001.1,N
1503491555.7,286046998.4,N
1503491575.5,286046998.6,N
1503491595.3,286046995.2,N
1503491615.2,286047000.8,N
1503491635.9,286046996.9,N
1503491655.7,286046999.1,N
1503491675.5,286047001.0,N
1503491695.4,286047002.2,N
1503491715.2,286047002.6,N
1503491735.0,286047000.6,N
1503491735.9,286047000.6,N
1503491755.8,286046999.2,N
1503491775.6,286046996.9,N
1503491795.4,286046998.2,N
1503491815.3,286047003.9,N
1503491835.1,286047001.3,N
1503491855.8,286046999.9,N
1503491875.7,286047001.2,N
1503491895.5,286047002.1,N
1503491915.3,286047002.7,N
1503491935.2,286047001.3,N
1503491955.9,286047002.1,N
1503491975.7,286047002.7,N
1503491995.6,286047002.1,N
1503492015.4,286046998.5,N
1503492035.2,286047000.0,N
1503492055.0,286047000.6,N
1503492056.0,286047000.6,N
1503492075.8,286047000.7,N
1503492095.6,286047001.0,N
1503492115.4,286047000.1,N
1503492135.3,286047002.4,N
1503492155.1,286047004.1,N
1503492175.8,286047003.8,N
1503492195.7,286047001.9,N
1503492215.5,286047003.4,N
1503492235.3,286047002.0,N
1503492255.2,286047000.5,N
1503492275.9,286047001.0,N
1503492295.7,286047002.7,N
1503492315.6,286046998.4,N
1503492335.4,286047001.0,N
1503492355.2,286046997.4,N
1503492375.0,286046995.6,N
1503492376.0,286046995.6,N
1503492395.8,286046997.8,N
1503492415.6,286046995.1,N
1503492435.4,286046995.7,N
1503492455.3,286046995.8,N
1503492475.1,286046999.4,N
1503492495.8,286046997.6,N
1503492515.7,286046995.0,N
1503492535.5,286046998.8,N
1503492555.3,286046998.4,N
1503492575.2,286046998.2,N
1503492595.9,286046999.1,N
1503492615.7,286047002.7,N
1503492635.6,286046999.4,N
1503492655.4,286046993.3,N
1503492675.2,286046995.2,N
1503492695.0,286047000.7,N
1503492696.0,286047000.7,N
1503492715.8,286046998.7,N
1503492735.6,286046999.6,N
1503492755.4,286046998.5,N
1503492775.3,286046994.9,N
1503492795.1,286046996.0,N
1503492815.8,286046994.9,N
1503492835.7,286046995.4,N
1503492855.5,286046992.0,P
1503492875.3,286046996.5,N
1503492895.2,286047002.3,N
1503492915.0,286047002.3,N
1503492915.9,286047002.3,N
1503492935.7,286046999.2,N
1503492955.6,286047001.2,N
1503492975.4,286046998.9,N
1503492995.2,286046999.5,N
1503493015.1,286046996.5,N
1503493016.0,286046996.5,N
1503493035.8,286046999.2,N
1503493055.6,286046995.3,N
1503493075.5,286046999.1,N
1503493095.3,286046996.7,N
1503493115.1,286046995.0,N
1503493135.9,286046994.0,N
1503493155.7,286046994.2,N
1503493175.5,286046992.5,N
1503493195.3,286046996.8,N
